Regional Weather Roundup
Issued by NWS

Home | Current Version | Previous Version | Graphics & Text | Print | Product List | Glossary On
Versions: 1 2 3 4 5 6 7 8 9 10 11 12 13 14 15 16 17 18 19 20 21 22 23 24 25 26 27 28 29 30 31 32 33 34 35 36 37 38 39 40 41 42 43 44 45 46 47 48 49 50
000
ASUS43 KLSX 170757
RWRMO

WEATHER SUMMARY FOR MISSOURI
NATIONAL WEATHER SERVICE SPRINGFIELD MO
200 AM CST WED JAN 17 2018

NOTE: "FAIR" INDICATES FEW OR NO CLOUDS BELOW 12,000 FEET WITH NO
       SIGNIFICANT WEATHER AND/OR OBSTRUCTIONS TO VISIBILITY.
       CURRENT SKY AND/OR WEATHER CONDITIONS ARE NOT AVAILABLE FOR
       CHILLICOTHE AND FARMINGTON.

MOZ001>031-035>038-043-044-053-054-170900-
...NORTHERN AND WESTERN MISSOURI...

CITY           SKY/WX    TMP DP  RH WIND       PRES   REMARKS
KANSAS CTY INT CLOUDY    -1  -5  82 S6        30.66F WCI -13
LEE`S SUMMIT   CLEAR      2  -1  88 SW5       30.68S WCI  -8
ST JOSEPH        N/A    N/A N/A N/A MISG      30.69S
CHILLICOTHE      N/A     -3  -7  82 CALM      30.69F

$$
MOZ066>068-077>081-088>096-101>105-170900-
...SOUTHWEST MISSOURI...

CITY           SKY/WX    TMP DP  RH WIND       PRES   REMARKS
SPRINGFIELD    CLOUDY    -7 -11  83 CALM      30.65S
JOPLIN         PTCLDY    -1  -4  87 S3        30.71F

$$
MOZ032>034-039>042-045>050-055>058-069>072-170900-
...CENTRAL MISSOURI...

CITY           SKY/WX    TMP DP  RH WIND       PRES   REMARKS
COLUMBIA       NOT AVBL
JEFFERSON CITY CLOUDY     1  -3  83 NW3       30.72F
ROLLA          CLOUDY     1  -2  87 W6        30.65S WCI -10
SEDALIA        CLOUDY     0  -2  91 W5        30.69F WCI -10
WARRENSBURG    CLOUDY    -4  -8  84 CALM      30.70S

$$
MOZ051-052-059>065-170900-
...EAST CENTRAL MISSOURI...

CITY           SKY/WX    TMP DP  RH WIND       PRES   REMARKS
ST LOUIS INTL  PTCLDY     7   1  76 W10       30.68S WCI  -8

$$
MOZ072>076-082>087-097>100-106>115-170900-
...SOUTH CENTRAL AND SOUTHEAST MISSOURI...

CITY           SKY/WX    TMP DP  RH WIND       PRES   REMARKS
CAPE GIRARDEAU CLOUDY    11   4  73 N12       30.69S WCI  -3
POPLAR BLUFF   FAIR     N/A N/A N/A NW5       30.70S
WEST PLAINS    CLEAR      1  -3  83 CALM      30.63F

$$



USA.gov is the U.S. government's official web portal to all federal, state and local government web resources and services.